Location: Stoke Bliss
(52.2667°N, 2.5167°W)
Time: 13:04:08
(UTC+00:00)

Cosmos 1862 Rocket - Pass Details

Date: 03 March 2021
Orbit: 603 x 634 km, 82.5° (Epoch: 13 April)

Event Time Altitude Azimuth Distance (km) Brightness Sun altitude
Rises 18:57:45 0° 347° (NNW) 2,946 7.3 -10.6°
Reaches altitude 10° 19:00:01 10° 345° (NNW) 2,033 6.5 -11.0°
Maximum altitude 19:04:30 68° 263° (W) 688 4.0 -11.7°
Drops below altitude 10° 19:08:56 10° 181° (S) 2,012 6.1 -12.3°
Sets 19:11:10 0° 179° (S) 2,912 6.9 -12.7°
